TimeMDT,TemperatureF,Dew PointF,Humidity,Sea Level PressureIn,VisibilityMPH,Wind Direction,Wind SpeedMPH,Gust SpeedMPH,PrecipitationIn,Events,Conditions,WindDirDegrees,DateUTC
12:53 AM,34.0,30.9,89,30.44,10.0,South,4.6,-,N/A,,Mostly Cloudy,180,2012-10-26 06:53:00
1:53 AM,32.0,30.9,96,30.45,6.0,SSE,5.8,-,N/A,,Scattered Clouds,160,2012-10-26 07:53:00
2:53 AM,32.0,30.0,92,30.41,10.0,SE,6.9,-,N/A,,Partly Cloudy,140,2012-10-26 08:53:00
3:53 AM,30.9,26.1,82,30.42,10.0,South,5.8,-,N/A,,Partly Cloudy,170,2012-10-26 09:53:00
4:53 AM,30.9,25.0,79,30.41,10.0,SSE,5.8,-,N/A,,Clear,150,2012-10-26 10:53:00
5:53 AM,28.9,25.0,85,30.47,10.0,ESE,5.8,-,N/A,,Clear,120,2012-10-26 11:53:00
6:53 AM,30.0,27.0,88,30.48,10.0,SE,6.9,-,N/A,,Clear,140,2012-10-26 12:53:00
7:53 AM,30.0,24.1,79,30.49,10.0,SE,6.9,-,N/A,,Scattered Clouds,130,2012-10-26 13:53:00
8:53 AM,32.0,24.8,75,30.45,10.0,SE,11.5,-,N/A,,Scattered Clouds,130,2012-10-26 14:53:00
9:53 AM,35.1,28.0,76,30.51,10.0,SSE,11.5,-,N/A,,Scattered Clouds,160,2012-10-26 15:53:00
10:53 AM,37.0,28.9,73,30.45,10.0,SE,12.7,-,N/A,,Scattered Clouds,140,2012-10-26 16:53:00
11:53 AM,41.0,30.9,67,30.46,10.0,SSE,9.2,-,N/A,,Scattered Clouds,150,2012-10-26 17:53:00
12:53 PM,43.0,30.0,60,30.42,10.0,Variable,5.8,-,N/A,,Scattered Clouds,0,2012-10-26 18:53:00
1:53 PM,45.0,28.0,52,30.37,10.0,SSE,11.5,-,N/A,,Scattered Clouds,160,2012-10-26 19:53:00
2:53 PM,46.9,23.0,39,30.31,10.0,South,11.5,-,N/A,,Scattered Clouds,180,2012-10-26 20:53:00
3:53 PM,48.0,21.9,36,30.27,10.0,South,9.2,18.4,N/A,,Scattered Clouds,170,2012-10-26 21:53:00
4:53 PM,48.0,24.1,39,30.24,10.0,SSW,8.1,-,N/A,,Scattered Clouds,200,2012-10-26 22:53:00
5:53 PM,46.9,21.0,36,30.23,10.0,South,8.1,-,N/A,,Mostly Cloudy,180,2012-10-26 23:53:00
6:53 PM,42.1,28.0,58,30.19,10.0,North,3.5,-,N/A,,Mostly Cloudy,350,2012-10-27 00:53:00
7:53 PM,44.1,30.0,58,30.22,10.0,NE,3.5,-,N/A,,Mostly Cloudy,40,2012-10-27 01:53:00
8:53 PM,43.0,26.1,51,30.20,10.0,SE,5.8,-,N/A,,Mostly Cloudy,130,2012-10-27 02:53:00
9:53 PM,44.1,24.1,45,30.19,10.0,Calm,Calm,-,N/A,,Mostly Cloudy,0,2012-10-27 03:53:00
10:53 PM,41.0,30.9,67,30.19,10.0,North,5.8,-,N/A,,Mostly Cloudy,360,2012-10-27 04:53:00
11:53 PM,42.1,32.0,67,30.19,10.0,North,3.5,-,N/A,,Mostly Cloudy,10,2012-10-27 05:53:00